Location: Cedar Springs
(43.2230°N, 85.5510°W)
Time: 09:13:31
(UTC-04:00)

Cosmos 2278 Rocket - Visible Passes

Search period start: 07 July 2015 00:00
Search period end: 17 July 2015 00:00
Orbit: 843 x 844 km, 71.0° (Epoch: 06 July)

Date Brightness Start Highest point End Pass type
(mag) Time Alt. Az. Time Alt. Az. Time Alt. Az.
07 Jul 4.6 04:34:03 10° SE 04:36:57 15° E 04:40:08 10° ENE visible
08 Jul 4.6 04:19:46 10° SE 04:22:28 14° E 04:25:29 10° ENE visible
09 Jul 4.6 04:05:30 10° SE 04:07:59 13° E 04:10:46 10° ENE visible
10 Jul 4.6 03:51:16 10° ESE 03:53:30 13° E 03:56:04 10° ENE visible
10 Jul 2.3 05:31:13 10° SSW 05:36:53 88° WNW 05:42:35 10° NNE visible
11 Jul 4.6 03:37:04 10° ESE 03:39:01 12° E 03:41:19 10° ENE visible
11 Jul 2.3 05:16:43 10° SSW 05:22:22 89° ESE 05:28:05 10° NNE visible
12 Jul 4.6 03:22:55 10° ESE 03:24:32 11° E 03:26:31 10° ENE visible
12 Jul 2.3 05:02:27 11° SSW 05:07:52 85° ESE 05:13:34 10° NNE visible
13 Jul 4.6 03:08:50 10° ESE 03:10:03 11° E 03:11:39 10° E visible
13 Jul 2.3 04:48:36 15° SSW 04:53:21 82° ESE 04:59:03 10° NNE visible
14 Jul 4.7 02:54:58 10° ESE 02:55:34 10° E 02:56:34 10° E visible
14 Jul 2.3 04:34:42 19° SSW 04:38:50 79° ESE 04:44:32 10° NNE visible
15 Jul 2.3 04:20:45 23° SSW 04:24:20 76° ESE 04:30:01 10° NNE visible
16 Jul 2.3 04:06:46 28° S 04:09:49 73° ESE 04:15:30 10° NNE visible
